Flag for Canada Weather past 2 weeks in Medicine Hat, Alberta, Canada

Now
55 °F

Passing clouds.


Feels Like: 52 °F
Forecast: 39 / 58 °F
Wind: 15 mph from Southwest

Location: Medicine Hat

Current Time: Mar 28, 2015 at 3:50:32 AM

Latest Report: Mar 28, 2015 at 3:00 AM


Visibility: 9 mi

Pressure: 29.63 "Hg

Humidity: 59%

Dew point: 41 °F

Location of Medicine HatLocation

Historic Weather in Medicine Hat — Graph

°F

Medicine Hat temperature yesterday

Maximum temperature yesterday: 66 °F (at 2:00 PM)
Minimum temperature yesterday: 41 °F (at 6:00 AM)
Average temperature yesterday: 54 °F

Past Weeks' High & Low Weather Summary

 TemperatureHumidityPressure
High70 °F (Mar 14, 2:00 PM)100% (Mar 15, 8:00 PM)30.58 "Hg (Mar 15, 8:00 PM)
Low23 °F (Mar 17, 6:00 AM)26% (Mar 14, 12:00 PM)29.51 "Hg (Mar 14, 6:00 PM)
Average40 °F75%30.05 "Hg
* Reported Mar 13 2:00 AM — Mar 28 2:00 AM, Medicine Hat, Weather by CustomWeather, © 2015

Note: Actual official high and low records may vary slightly from our data, if they occured in-between our weather recording intervals... More about our weather records

Advertising

Medicine Hat weather history for previous 24 hours

 ConditionsComfort  
Time TempWeatherWind HumidityBarometerVisibility
2:00 AM
Sat, Mar 28
54 °FMostly cloudy.8 mph63%29.65 "Hg9 mi
1:00 AM55 °FOvercast.3 mph59%29.68 "Hg9 mi
12:00 AM50 °FPassing clouds.5 mph67%29.72 "Hg9 mi
11:00 PM
Fri, Mar 27
52 °FOvercast.6 mph58%29.75 "Hg9 mi
10:00 PM50 °FMostly cloudy.7 mph67%29.77 "Hg9 mi
9:00 PM50 °FPassing clouds.3 mph58%29.80 "Hg15 mi
8:00 PM55 °FBroken clouds.6 mph44%29.81 "Hg30 mi
7:00 PM61 °FPartly sunny.2 mph42%29.83 "Hg30 mi
6:00 PM64 °FPartly sunny.3 mph34%29.84 "Hg30 mi
5:00 PM66 °FPartly sunny.No wind32%29.85 "Hg30 mi
4:00 PM66 °FPartly sunny.2 mph30%29.88 "Hg30 mi
3:00 PM64 °FPartly sunny.9 mph34%29.89 "Hg30 mi
2:00 PM66 °FPartly sunny.10 mph30%29.91 "Hg30 mi
1:00 PM64 °FPartly sunny.12 mph34%29.92 "Hg30 mi
12:00 PM64 °FPartly sunny.12 mph37%29.93 "Hg30 mi
11:00 AM61 °FPartly sunny.12 mph42%29.95 "Hg30 mi
10:00 AM55 °FPartly sunny.9 mph55%29.96 "Hg30 mi
9:00 AM48 °FPartly sunny.5 mph71%29.98 "Hg30 mi
8:00 AM45 °FHigh level clouds.9 mph81%29.98 "Hg30 mi
7:00 AM41 °FHigh level clouds.2 mph87%29.98 "Hg30 mi
6:00 AM41 °FClear.7 mph87%29.98 "Hg9 mi
5:00 AM45 °FClear.12 mph81%29.98 "Hg9 mi
4:00 AM45 °FClear.10 mph81%29.98 "Hg9 mi
3:00 AM46 °FClear.7 mph76%29.98 "Hg9 mi
Weather by CustomWeather, © 2015

See weather overviewHow to use our weather pages